RH
10 10 11 12 12 12 12 12 11 11 11 10 10 9 9 9 9 13 17 20 19 14 10 8 6 5 3 3 3 3 3 3 3 2 2 2 2 2 3 6 12 17 23 31 32 30 29 28 27 26 26 25 25 26 25 26 27 29 29 29 30 28 40 70 94 100 98 88 70 62 57 47 35 30 25 18 19 18 18 20 16 20 23 22 19 14 17 21
10 11 11 12 13 13 13 13 13 12 12 12 11 11 11 10 10 10 13 18 21 19 15 10 8 6 5 4 3 3 3 3 3 3 2 2 2 2 2 3 7 10 15 26 31 31 31 29 28 27 27 26 26 26 27 29 28 29 28 29 28 29 52 81 93 94 88 77 68 62 56 49 37 30 27 17 16 17 17 18 16 19 21 22 21 14 15 18
10 10 11 12 13 14 15 15 14 14 13 13 13 13 12 12 12 11 12 14 19 22 20 15 11 8 7 5 4 3 3 3 3 3 3 2 2 2 2 2 3 5 8 17 25 29 31 31 29 28 28 27 28 27 27 29 30 30 28 29 26 37 71 84 82 85 78 74 70 62 56 49 38 30 26 16 13 15 15 15 16 17 18 24 23 15 16 17
10 10 11 12 13 14 16 17 16 15 15 15 14 14 14 13 13 13 14 14 16 21 24 21 15 11 8 6 5 4 3 3 3 3 3 3 2 2 2 2 2 3 4 9 18 25 30 32 31 31 30 29 29 28 28 28 30 32 29 31 26 40 80 87 76 77 76 76 69 61 56 49 42 32 20 13 11 12 13 12 13 15 17 26 26 17 17 18
10 10 10 11 13 14 15 17 18 17 17 16 15 15 15 15 15 15 15 16 16 19 23 25 21 15 11 8 7 5 4 3 3 3 3 3 2 2 2 2 2 2 2 5 11 18 26 31 32 32 32 31 31 29 29 28 29 30 29 33 28 36 73 92 83 76 77 78 67 58 54 52 47 33 19 15 12 10 11 12 12 13 14 23 27 19 18 19
10 10 10 11 13 15 17 17 18 19 19 18 17 16 15 15 15 15 16 17 18 18 21 25 26 21 14 10 8 7 5 4 3 3 3 3 3 3 2 2 2 2 2 3 6 11 18 25 29 32 33 33 32 32 30 30 29 28 29 31 30 32 57 89 93 81 81 79 70 63 57 55 52 38 26 21 17 11 9 11 11 12 12 17 22 20 19 20
10 10 10 10 11 14 17 20 20 20 20 20 20 18 17 16 15 16 16 17 18 19 19 23 27 26 20 13 10 8 7 5 4 3 3 3 3 3 2 2 2 2 2 2 3 5 10 18 24 28 31 32 31 32 32 31 31 29 29 29 32 32 43 79 96 87 88 86 77 74 65 60 56 44 27 20 21 15 10 12 12 12 11 12 17 19 19 19
11 11 11 10 10 11 14 18 21 22 22 22 22 21 19 17 16 16 16 17 18 19 19 21 25 29 26 17 12 10 8 7 5 4 4 3 4 3 3 3 2 2 2 2 2 3 5 10 16 20 25 28 29 30 31 31 32 30 30 29 31 32 35 65 93 94 95 94 86 82 76 67 62 52 32 20 19 15 11 12 12 12 12 11 13 17 20 19
11 11 11 11 11 11 11 13 18 22 24 24 24 23 22 19 18 17 16 16 17 18 19 21 23 27 30 23 15 12 10 8 7 5 4 4 4 3 3 3 2 2 2 2 2 2 3 5 8 12 14 19 23 26 28 30 31 31 31 29 29 33 33 47 79 98 100 96 89 86 84 74 67 64 48 28 18 13 11 12 13 13 13 11 11 15 19 20
11 11 11 11 11 11 11 11 13 17 22 24 24 25 25 23 20 18 17 15 15 17 18 21 22 25 30 29 20 14 12 10 8 7 5 4 4 4 4 4 3 3 2 2 3 2 3 3 4 5 6 10 15 19 23 25 28 30 31 31 29 31 33 35 55 85 98 98 92 88 88 82 73 72 63 38 20 12 10 12 13 13 13 12 11 14 18 20
11 11 11 11 11 10 11 11 13 15 17 21 24 25 26 26 24 21 19 16 14 15 16 19 22 24 28 32 27 18 14 12 9 8 7 5 4 4 4 4 4 3 3 3 2 3 2 2 2 3 4 5 9 12 16 19 23 27 29 31 30 30 33 32 39 63 86 97 97 91 88 88 81 75 68 45 22 12 9 11 13 13 14 12 11 13 16 20
10 10 10 9 9 10 10 10 13 17 17 19 24 25 26 27 27 24 21 18 15 13 13 15 19 23 27 32 32 25 18 13 11 10 8 7 5 4 4 4 4 3 3 3 2 3 2 2 2 2 3 3 6 7 9 11 15 21 25 28 30 32 34 35 37 49 72 92 100 95 88 92 90 79 72 52 29 15 8 10 11 12 14 13 12 12 15 19
8 8 7 7 7 7 8 9 14 19 20 21 25 28 26 27 30 28 24 20 17 13 11 11 14 19 25 30 33 31 22 14 13 11 9 8 6 4 4 4 5 4 4 3 3 2 2 2 2 2 3 3 4 5 6 7 9 13 19 24 27 30 34 35 36 41 58 82 99 98 91 96 93 82 76 61 41 21 9 10 9 11 15 14 13 12 14 17
6 6 6 5 6 6 7 10 17 24 28 28 31 34 30 29 32 30 26 21 18 15 11 10 9 13 20 26 32 34 28 18 14 12 10 9 7 6 4 4 5 4 4 4 3 3 2 2 2 2 2 2 3 4 5 5 6 8 11 18 21 26 30 30 35 40 50 74 98 101 96 99 94 85 81 69 53 28 10 12 9 10 14 13 14 11 12 15
5 5 5 5 6 7 9 14 23 34 40 40 41 42 35 33 35 31 26 22 19 16 13 10 7 8 13 20 29 34 32 23 16 13 12 10 8 7 5 4 5 4 5 4 4 3 3 2 2 2 2 2 3 3 5 5 5 6 8 14 16 22 26 28 35 38 46 71 96 101 98 97 91 88 87 74 65 42 14 13 12 9 13 12 14 12 11 14
5 4 5 6 8 9 12 21 33 45 54 54 54 49 39 36 35 29 24 21 19 17 15 11 7 6 7 13 21 30 33 29 21 14 12 11 9 8 6 5 4 4 4 4 4 3 3 3 2 2 2 2 3 3 4 5 5 5 10 13 12 17 22 26 33 34 45 69 90 100 98 96 91 89 90 77 70 56 24 14 13 8 11 12 12 13 11 13
5 6 7 9 11 14 19 34 49 60 66 65 60 50 38 36 32 24 21 19 18 17 15 11 7 5 5 7 14 22 30 32 27 19 13 11 10 9 7 6 4 4 4 4 4 4 4 4 3 3 2 2 3 3 3 4 6 6 10 13 11 14 17 21 27 29 38 53 77 98 98 98 97 92 93 82 73 65 36 19 14 9 11 13 12 13 12 11
6 8 11 13 18 24 35 54 70 75 74 66 56 43 33 32 28 21 17 16 15 15 14 11 8 5 4 5 8 15 25 31 30 24 16 12 11 10 8 7 5 4 4 4 4 4 4 3 4 3 2 3 2 3 4 5 8 7 11 14 12 12 15 17 22 28 33 40 66 95 99 99 101 96 95 90 82 74 52 28 16 11 12 16 15 13 12 11
9 13 17 22 29 40 55 72 79 76 67 54 42 32 28 28 25 19 16 15 15 13 12 11 8 6 4 4 5 9 17 26 31 28 19 13 12 11 9 8 6 5 4 4 4 5 4 4 4 3 3 3 2 4 4 6 9 8 8 11 11 10 14 15 18 28 37 50 76 96 99 100 100 99 98 98 93 84 67 40 19 12 12 17 19 14 13 12
15 21 27 35 44 55 66 71 70 62 52 39 28 24 24 24 21 16 14 14 13 12 10 10 8 7 5 3 3 5 10 18 26 28 22 15 13 11 11 9 7 6 4 4 5 5 5 4 4 4 4 3 3 4 4 7 9 7 7 7 8 9 11 16 18 30 47 67 90 99 99 100 100 101 98 97 97 90 78 53 26 15 13 16 18 16 13 12
23 32 39 46 52 57 58 57 55 53 46 33 22 19 17 16 15 13 12 10 9 10 9 9 8 6 5 4 3 3 5 11 19 25 24 18 14 12 12 10 8 7 5 4 5 5 5 5 5 4 5 3 4 4 4 8 7 11 16 12 13 14 12 16 21 39 63 77 92 98 98 100 99 100 97 93 96 97 89 66 36 20 14 15 15 14 13 12
29 37 43 45 46 45 44 43 40 37 31 22 15 12 8 8 9 9 10 8 7 8 7 7 6 5 5 4 3 3 3 7 13 19 23 21 16 13 13 11 9 8 6 5 4 5 5 5 6 5 5 4 4 4 5 8 6 10 20 26 39 38 28 35 43 60 80 85 92 97 98 101 99 100 98 94 97 100 94 74 49 28 16 14 14 12 11 12
28 33 36 37 38 38 36 32 27 21 15 10 8 7 5 5 4 5 8 7 6 7 6 5 5 4 4 3 3 2 2 4 8 13 18 20 17 15 14 12 11 9 7 6 5 5 5 5 6 5 5 5 4 5 4 7 8 8 19 46 71 66 56 69 79 84 90 92 96 98 99 100 99 98 96 96 99 100 98 83 59 39 24 16 13 14 12 12
25 29 33 35 37 35 29 22 18 14 10 8 7 6 5 6 4 4 5 5 5 6 5 4 3 3 3 3 3 2 2 3 5 10 14 17 17 16 15 13 12 10 9 8 6 6 6 5 6 5 6 5 4 5 4 7 9 7 25 65 90 81 74 86 92 94 93 93 98 97 99 100 99 98 94 95 100 99 99 92 70 48 34 21 12 13 13 11
26 30 34 36 34 28 20 16 12 9 7 7 7 7 7 7 6 5 4 4 4 4 4 4 3 3 2 2 3 2 2 2 3 8 11 14 16 16 15 14 14 12 10 8 7 7 7 6 6 5 6 5 5 4 5 7 7 14 35 68 95 93 85 85 90 97 97 95 99 97 99 101 99 100 96 94 99 99 98 98 82 56 40 30 19 16 15 11
30 33 35 34 28 19 14 12 11 8 7 7 8 8 8 7 6 5 5 4 3 3 3 4 3 3 2 2 2 2 2 2 3 6 10 13 15 16 16 15 15 14 12 9 8 7 7 7 6 6 6 5 6 4 5 6 7 33 57 66 89 100 89 83 85 94 97 93 96 97 98 101 99 100 99 95 97 99 99 100 91 66 46 38 29 21 17 14
35 36 35 30 22 15 12 11 11 9 7 8 9 9 8 7 5 4 5 4 3 4 3 4 5 5 4 2 2 3 2 3 3 4 9 12 14 16 16 17 16 15 13 10 9 7 8 9 6 6 6 5 6 3 6 7 5 41 70 63 78 97 91 87 83 86 93 90 92 93 94 98 100 99 99 99 99 99 100 100 96 78 55 45 37 28 21 16
38 38 34 26 19 15 11 9 8 7 7 9 9 9 7 5 3 3 5 5 6 7 4 3 6 8 7 4 2 3 2 4 5 4 7 11 14 17 17 18 18 16 15 11 9 9 8 9 6 6 6 5 7 3 5 8 7 40 69 57 68 91 93 94 91 89 92 91 91 91 87 90 95 97 96 97 98 97 99 100 98 89 67 51 43 35 29 20
40 39 32 24 19 15 9 8 8 8 10 10 9 10 8 4 3 4 4 6 8 8 6 8 13 16 15 7 2 3 3 3 6 6 6 10 13 16 18 20 19 17 17 13 11 11 9 9 7 6 6 4 7 5 5 7 7 35 66 61 68 89 93 95 95 93 95 94 92 88 82 83 89 97 97 93 93 96 100 100 100 97 78 59 48 40 37 29
40 38 31 25 18 11 9 10 10 10 10 9 11 11 6 3 8 12 9 10 12 9 9 16 20 24 24 17 6 2 3 3 6 6 6 9 13 16 18 19 20 18 17 15 12 11 10 9 7 6 6 6 7 5 5 7 5 25 57 65 71 85 89 93 93 88 91 93 89 85 80 77 79 88 91 89 91 95 98 98 99 100 85 66 52 41 38 36
39 36 29 23 15 10 12 12 10 10 8 10 13 9 5 7 16 20 17 22 25 16 11 19 25 27 28 26 16 5 4 4 5 6 7 9 11 14 17 18 20 18 17 16 13 12 10 8 7 6 6 6 7 6 4 6 6 16 40 54 67 79 82 92 95 83 84 90 86 83 79 74 72 75 80 82 85 89 91 93 98 101 92 75 60 47 39 37
38 34 28 20 13 12 14 12 10 8 7 13 14 7 7 12 16 20 23 31 37 26 16 20 30 33 31 31 23 9 5 5 5 7 9 11 12 14 16 18 20 19 18 17 14 13 11 8 8 6 7 7 6 7 5 5 6 11 23 32 48 64 70 82 88 77 76 84 84 81 77 72 70 70 73 76 78 83 88 92 96 99 98 87 73 60 46 37
37 34 27 18 13 14 16 13 8 7 10 16 14 8 10 11 12 20 29 38 44 38 29 25 27 30 32 34 29 15 6 7 9 12 12 12 13 16 17 17 19 20 20 19 16 13 11 9 9 6 7 7 6 7 6 5 6 7 14 21 26 37 46 58 69 66 67 75 78 78 76 71 68 67 70 73 73 78 87 92 96 98 100 96 86 74 59 44
36 31 25 18 13 15 17 13 7 8 15 18 16 12 14 15 17 25 33 42 50 47 42 38 31 25 25 29 31 21 11 9 12 16 18 17 15 17 19 19 19 20 21 21 18 15 12 10 9 8 7 7 7 8 6 6 7 5 18 36 37 30 32 42 52 56 63 67 66 67 68 68 68 69 72 75 74 76 82 88 92 95 98 100 95 85 72 56
35 30 25 17 14 18 19 11 7 12 19 22 22 20 20 24 27 32 38 43 48 47 44 46 43 33 24 22 26 24 17 15 16 16 20 22 19 16 19 20 20 21 23 22 19 16 13 12 9 9 9 7 8 8 7 8 7 5 20 47 53 40 31 34 38 46 62 71 68 65 65 66 69 72 74 76 79 81 83 83 84 84 86 93 99 92 80 66
34 31 26 17 15 21 19 10 9 17 23 28 33 34 33 38 41 46 50 49 46 44 41 44 47 42 31 22 24 27 25 22 20 19 21 23 23 20 18 20 20 21 24 23 22 18 14 13 11 9 10 9 9 10 8 7 7 9 19 41 55 47 32 25 27 40 61 75 77 73 71 72 71 74 77 78 83 88 88 85 82 78 76 86 98 97 88 75
33 31 26 17 18 22 16 10 14 19 25 33 42 45 47 51 55 58 60 56 51 45 40 41 44 44 37 28 29 34 36 33 27 26 28 26 28 26 20 19 20 21 25 24 22 20 16 15 13 11 10 10 10 11 10 8 9 10 15 31 46 45 33 24 28 43 55 70 86 84 76 75 74 76 81 83 85 91 93 91 86 80 75 83 96 99 95 81
32 31 25 17 20 21 12 12 19 22 27 40 48 48 50 55 60 65 66 63 60 53 44 39 37 42 42 34 38 46 48 50 44 38 38 34 33 32 25 22 20 21 26 26 23 22 19 16 14 13 11 11 11 11 11 8 8 12 22 35 42 40 35 29 31 41 44 58 89 95 80 74 76 79 83 86 86 88 93 93 88 82 79 85 96 100 98 84
34 30 24 19 21 20 10 13 23 25 30 41 45 43 44 49 54 61 66 66 66 62 53 43 33 37 44 38 45 57 57 60 60 51 50 47 42 38 31 25 23 23 27 29 26 25 21 18 16 14 12 12 12 11 11 8 6 12 27 42 48 47 48 43 37 39 41 54 85 98 86 77 77 79 83 88 88 84 86 89 85 79 79 88 99 101 98 90
36 30 24 21 22 19 10 12 22 28 33 38 37 34 35 37 39 45 51 55 64 65 58 53 39 33 41 40 44 56 59 65 72 65 61 60 54 50 42 30 26 27 29 31 29 26 24 20 17 15 13 13 12 10 10 10 8 8 16 42 62 62 62 64 53 41 40 58 84 93 86 80 77 79 84 89 89 84 83 86 84 78 75 80 93 101 99 93
36 30 24 23 24 21 11 11 21 28 33 36 34 30 28 28 26 27 30 36 52 63 59 58 50 36 38 41 41 55 67 75 85 81 71 70 67 64 58 43 32 29 31 32 30 28 26 22 18 17 14 13 12 11 11 12 12 8 11 43 76 79 74 70 56 40 38 58 84 89 81 75 70 74 84 88 88 88 86 85 85 81 76 73 80 93 99 97
35 29 24 22 25 26 17 12 19 28 34 37 36 33 30 27 22 20 22 22 36 59 65 63 57 43 41 46 48 65 83 85 90 89 78 77 78 74 69 58 42 33 33 33 32 30 27 23 20 18 16 14 12 12 14 13 13 13 22 55 88 93 80 61 44 39 43 54 75 85 82 76 67 70 84 87 85 89 88 84 83 82 79 74 72 78 89 96
36 30 24 20 22 30 27 17 19 30 38 41 42 42 39 35 28 25 27 22 22 41 60 68 66 51 44 49 55 75 93 91 92 93 81 77 82 78 72 67 51 38 35 35 34 32 29 25 22 19 18 16 13 13 14 14 14 15 28 56 78 81 73 60 49 53 60 64 75 85 87 88 83 79 86 88 85 87 87 84 83 81 78 75 71 71 76 82
36 31 24 19 19 27 28 21 22 32 39 42 44 45 43 38 33 30 30 27 21 24 41 60 69 62 50 48 57 76 90 90 92 96 86 77 81 79 73 72 61 46 41 41 40 38 36 31 25 22 20 18 16 16 14 14 15 14 21 38 54 58 60 63 60 57 59 65 78 89 88 90 93 91 90 89 88 89 89 85 82 79 76 73 69 68 72 76
36 31 24 21 21 27 31 27 27 33 37 41 41 40 38 33 34 37 32 24 19 18 27 45 61 68 63 54 56 70 82 86 89 94 89 81 81 81 77 76 71 58 52 52 50 48 47 42 31 25 24 20 16 15 12 12 14 13 17 28 43 52 53 55 54 48 44 48 65 82 86 85 89 91 91 90 88 90 90 85 80 76 75 73 68 67 71 76
35 31 23 21 22 29 38 39 35 35 38 41 39 36 35 36 42 48 38 21 15 16 23 34 48 64 71 66 62 64 72 81 84 86 88 85 83 84 84 82 76 70 70 68 62 58 60 56 41 31 31 27 20 17 15 14 13 14 18 25 36 48 54 50 42 35 34 36 42 57 69 73 75 80 87 89 85 85 87 83 78 75 74 72 68 65 68 75
35 32 24 20 19 23 32 38 35 35 38 40 37 33 34 38 44 47 40 24 14 17 25 31 39 55 70 73 71 67 67 73 78 80 83 83 82 83 87 87 81 81 88 87 78 71 69 68 56 42 43 41 30 26 23 19 18 19 24 32 37 42 48 47 36 29 32 32 26 28 38 46 51 59 73 84 84 82 81 80 78 74 71 70 67 64 66 72
34 33 25 21 22 21 22 27 29 30 33 35 35 33 33 33 31 35 42 35 20 20 32 36 37 46 60 67 70 70 68 68 72 76 78 79 78 78 84 89 86 88 95 97 94 85 79 80 72 58 59 57 43 39 39 36 35 35 36 44 50 51 52 53 51 52 54 49 36 27 24 24 28 36 48 64 75 80 80 77 75 72 67 64 65 64 64 68
37 35 27 21 23 21 18 21 22 20 24 29 33 32 31 27 19 20 34 37 25 23 37 49 50 51 58 63 65 67 69 67 68 71 72 74 75 77 81 86 88 90 93 98 101 93 87 91 85 71 76 78 63 56 59 61 64 61 55 57 63 70 75 74 70 69 69 70 66 54 39 29 24 22 25 33 44 59 72 76 73 70 67 63 62 61 60 60
40 38 27 17 18 20 21 22 18 15 18 24 28 29 25 22 18 15 23 31 28 22 31 52 66 68 67 64 63 66 68 68 69 69 67 67 69 72 77 82 85 86 87 93 100 95 89 97 96 83 85 94 86 75 74 79 86 87 81 77 72 75 82 83 78 71 67 76 83 73 56 45 33 20 17 20 23 31 47 62 67 66 64 62 58 55 54 54
43 41 27 16 16 19 22 24 18 16 21 24 25 25 22 21 20 17 18 26 29 23 21 36 58 67 60 55 63 76 77 73 72 70 67 64 61 61 66 73 79 82 81 82 93 97 91 91 95 90 89 98 99 92 85 85 89 93 94 91 82 76 74 73 73 73 70 71 72 66 58 55 49 36 27 28 31 29 30 40 52 57 56 54 49 45 44 45
46 45 29 17 16 17 20 23 19 17 23 27 26 24 22 21 22 20 17 20 27 26 20 26 44 55 52 54 69 86 90 86 80 73 67 62 57 55 58 64 71 77 78 73 80 94 92 81 80 86 92 99 100 98 97 93 91 92 94 93 87 79 71 64 61 62 62 61 61 63 64 61 56 50 43 41 44 41 32 26 31 40 44 44 40 36 34 34
Wind_Speed
17 17 17 17 18 18 18 18 19 18 18 18 19 20 22 23 25 26 26 25 24 24 23 23 23 22 22 22 23 23 22 22 22 23 23 20 17 17 17 18 19 20 21 22 21 19 17 16 15 14 12 9 8 8 7 7 6 3 3 4 7 10 13 16 9 4 13 24 27 22 21 19 17 16 14 14 12 12 13 13 13 12 10 9 11 17 21 19
19 19 19 19 19 19 19 19 19 20 20 19 19 20 21 22 23 24 26 27 26 25 24 24 24 23 22 22 22 23 23 22 22 25 24 20 19 20 19 19 20 21 21 23 24 23 21 19 18 16 13 10 8 7 7 6 5 3 2 3 5 9 12 10 7 21 27 29 25 21 21 18 17 17 15 14 14 14 15 15 14 14 11 8 10 15 20 20
21 21 21 20 20 20 20 20 20 21 21 21 21 21 21 22 22 23 24 26 27 26 25 24 24 24 23 23 22 23 23 23 24 25 22 21 22 20 19 20 21 20 21 23 24 25 24 22 19 16 14 11 9 8 8 7 5 3 2 2 4 8 9 10 21 28 28 26 23 21 19 17 16 16 15 14 15 17 17 18 17 15 13 9 11 15 20 19
23 23 23 23 22 22 21 21 22 22 22 22 22 22 22 22 23 23 22 23 25 26 26 25 25 25 24 23 23 23 23 24 26 24 22 23 23 21 21 22 21 21 20 21 23 25 25 23 21 18 15 13 12 11 10 8 6 4 3 1 2 6 7 14 22 24 24 23 21 19 17 17 16 15 14 15 16 17 16 17 19 19 16 12 12 16 19 19
23 24 24 25 25 24 24 23 23 24 23 23 23 23 23 24 24 24 23 23 23 25 27 27 26 25 25 25 24 24 24 25 26 24 23 24 22 22 23 23 22 21 20 21 23 24 25 26 24 21 18 17 17 15 12 11 8 6 4 2 0 3 4 9 16 20 22 21 19 17 16 15 14 12 11 12 15 17 17 16 17 19 19 17 15 17 19 19
24 24 25 25 26 26 26 26 25 25 25 24 24 25 24 24 24 25 25 24 23 23 26 27 27 26 26 26 25 25 24 25 25 24 24 24 23 23 24 24 23 21 21 22 22 24 26 27 25 24 22 22 22 19 16 13 11 8 6 4 2 0 2 5 13 19 20 19 16 15 14 13 13 11 10 11 11 14 17 15 15 17 18 19 19 19 19 19
26 26 25 26 27 27 27 28 27 27 27 26 25 26 26 25 25 25 26 25 25 24 25 27 27 27 27 26 26 26 25 25 25 25 25 24 23 23 24 24 23 22 23 23 23 24 25 26 26 27 27 28 27 24 20 17 14 11 8 6 4 3 1 2 10 17 18 17 15 13 13 12 12 10 10 12 11 12 16 15 13 14 15 17 19 19 19 19
28 28 27 27 28 28 28 28 29 29 29 28 27 27 27 26 26 26 26 26 26 26 25 26 27 28 27 27 27 27 26 25 25 25 25 24 23 24 24 24 24 24 24 24 25 24 25 26 27 28 30 31 30 27 24 21 19 14 11 9 6 5 2 2 7 14 15 13 13 12 11 11 11 9 9 11 12 12 15 16 13 13 14 15 18 20 19 18
30 30 30 29 29 30 30 30 30 30 30 30 29 28 28 27 27 26 26 27 27 27 27 26 26 27 28 28 28 28 27 26 25 25 25 24 25 25 24 24 25 26 25 25 25 25 25 26 27 29 30 31 30 29 27 25 22 18 14 12 10 8 5 3 6 11 13 11 12 12 10 10 10 9 8 9 11 12 14 16 14 13 13 14 17 20 20 19
32 32 32 31 31 31 31 32 31 31 31 31 30 29 28 28 27 27 26 27 27 28 28 27 27 27 28 29 29 29 27 27 26 26 25 25 25 26 25 25 26 27 27 26 26 26 26 26 26 27 28 29 30 29 28 27 25 22 18 16 14 11 8 5 5 9 13 13 13 13 11 11 11 10 9 8 10 12 14 16 15 14 13 13 16 20 21 21
34 33 33 33 33 32 32 33 33 32 32 31 31 30 29 29 28 27 26 26 27 28 28 28 28 28 28 29 30 30 28 28 27 26 26 25 26 26 26 26 27 27 27 27 28 27 27 27 26 26 27 27 28 29 28 27 26 24 22 20 17 14 11 9 7 8 12 15 16 15 14 13 12 12 10 9 10 12 14 15 16 15 14 13 15 18 20 21
35 35 35 34 34 34 33 33 34 33 33 32 31 30 29 28 28 28 26 26 27 27 28 28 28 28 28 30 31 30 28 28 28 27 27 26 26 26 26 27 28 28 27 28 28 28 28 27 26 26 26 25 26 27 26 25 25 25 24 23 21 17 14 12 9 8 11 15 18 17 16 15 14 13 11 10 10 11 13 14 15 15 14 13 15 17 19 20
37 36 36 35 35 34 33 33 33 33 33 32 31 29 29 28 28 28 27 26 26 27 28 28 29 29 29 30 31 30 29 29 29 29 28 27 27 26 27 27 28 28 27 27 28 28 28 28 27 27 26 26 26 25 22 22 22 23 24 24 23 21 17 15 13 11 12 15 19 19 17 16 15 14 12 11 11 11 12 13 14 15 14 13 14 17 19 19
37 37 37 35 35 34 33 33 33 33 33 32 30 28 28 28 28 28 27 26 26 27 28 28 29 29 30 31 31 31 31 30 30 31 30 29 28 28 28 28 28 28 27 26 26 27 28 28 28 28 27 26 25 23 21 19 19 20 21 23 24 23 21 18 16 14 13 14 18 20 19 18 18 16 14 13 12 12 13 13 14 15 14 13 15 16 17 18
37 38 37 36 35 33 32 32 32 32 31 30 29 27 27 28 27 27 26 26 26 27 28 28 29 29 30 31 31 32 32 32 32 33 32 31 30 29 30 31 30 29 28 27 26 26 26 26 28 28 27 26 25 23 20 17 17 16 18 21 23 24 23 21 18 16 14 14 17 20 21 21 20 18 16 15 14 12 13 14 15 16 15 13 15 16 16 17
38 38 37 35 34 33 32 31 31 30 29 28 27 26 26 27 26 26 26 26 26 27 28 28 28 29 30 31 32 33 34 35 34 34 33 33 32 31 31 32 31 31 30 28 27 26 26 26 28 27 26 26 24 22 19 17 15 14 16 19 22 23 23 22 21 18 16 14 15 19 22 23 22 20 17 16 14 12 13 14 15 16 16 14 15 16 16 17
38 37 35 33 32 31 30 29 28 28 26 26 25 25 25 25 25 24 24 24 25 26 27 27 27 28 29 30 32 34 35 35 35 34 33 33 32 32 32 31 31 31 31 29 28 27 27 28 28 26 26 26 25 21 19 15 13 13 15 18 21 22 23 23 23 20 17 16 16 18 22 24 24 21 18 16 14 13 13 14 15 16 17 15 15 16 17 18
36 34 32 30 29 28 27 25 25 25 24 24 24 23 23 24 24 23 22 23 24 25 26 26 27 28 29 30 31 33 35 35 35 34 33 33 33 32 32 32 31 31 31 30 29 28 28 28 27 27 26 26 24 20 18 16 15 16 17 18 19 20 22 23 22 19 17 17 17 18 21 25 26 23 21 18 15 14 14 15 16 17 18 16 16 17 17 18
33 31 28 26 25 24 23 22 22 22 22 22 22 22 22 22 22 22 21 22 23 24 25 25 26 27 27 28 30 32 33 34 35 34 33 33 33 33 33 32 32 31 31 30 30 30 29 27 27 26 25 24 22 21 20 19 19 20 21 21 20 21 22 23 21 19 17 16 17 18 21 25 27 24 23 22 18 16 15 15 16 17 19 19 18 18 18 18
30 27 24 22 21 20 20 20 20 20 20 20 19 19 19 19 19 20 20 21 22 22 23 24 25 26 26 28 29 31 32 34 35 35 34 33 34 34 33 33 32 32 31 30 30 30 29 28 27 25 23 23 24 24 23 21 20 21 21 21 20 22 23 22 21 19 17 16 15 19 23 26 28 25 24 25 22 19 15 14 15 16 18 20 19 18 18 18
27 25 22 20 19 18 18 18 18 18 17 17 16 16 16 16 17 18 18 18 20 20 21 23 24 25 26 27 28 29 31 33 35 35 35 34 34 34 34 33 32 31 31 31 32 31 30 28 26 25 25 26 26 26 24 22 22 21 19 19 18 19 21 21 20 17 17 16 14 18 25 27 28 26 25 26 24 20 17 15 15 16 18 20 20 19 19 18
25 23 21 19 18 17 17 17 16 15 15 14 14 14 14 14 14 15 16 17 18 19 20 21 23 24 25 26 27 28 30 32 34 34 35 34 34 35 34 34 33 31 31 31 32 33 31 28 27 28 28 28 27 26 25 24 23 21 20 19 18 18 19 18 16 15 16 16 13 16 25 28 27 25 25 26 24 22 19 18 17 17 18 19 20 19 18 18
23 21 20 18 17 16 16 15 14 13 13 13 13 13 12 12 12 13 14 15 16 17 18 20 22 23 24 26 27 28 29 31 32 33 34 34 35 34 34 34 33 32 31 31 31 31 31 30 30 30 29 28 27 26 27 26 24 22 22 21 18 18 18 16 14 14 16 16 13 14 23 30 28 25 24 24 24 23 19 19 20 19 18 19 20 20 19 19
21 19 18 16 15 15 14 14 13 13 12 12 12 12 11 11 11 11 13 14 15 16 17 19 21 22 24 26 27 28 29 30 31 32 33 34 34 34 34 34 34 32 31 30 30 30 30 31 33 32 30 28 27 27 28 27 24 23 23 22 19 19 18 16 16 17 16 15 13 13 20 28 28 23 22 22 23 24 20 19 21 21 20 20 19 20 20 20
20 18 16 15 14 14 13 13 12 12 12 12 12 11 11 11 10 10 11 12 14 15 17 19 21 23 24 26 27 28 28 30 32 32 32 33 34 34 35 35 34 32 31 31 31 31 32 34 34 32 31 29 28 28 29 28 25 23 24 24 21 19 19 18 19 20 18 15 14 12 14 22 25 22 20 21 23 25 23 22 23 23 22 20 18 18 20 20
21 19 16 14 13 13 13 12 12 12 12 11 11 11 11 11 10 9 10 11 13 15 17 19 20 22 24 26 27 27 28 30 32 33 33 34 34 34 35 34 34 33 32 31 31 32 33 34 35 34 33 30 29 30 30 30 27 24 25 27 24 21 20 21 22 23 21 19 16 13 10 15 22 24 21 21 22 24 25 25 25 24 23 21 19 19 20 20
21 19 16 14 13 13 13 12 12 12 11 11 10 10 11 10 9 9 9 11 12 14 16 18 19 21 23 25 26 27 28 29 31 33 35 35 34 35 34 34 33 32 32 32 32 32 33 34 35 35 34 32 31 31 31 31 29 27 27 29 28 24 23 24 25 24 23 21 18 15 12 11 16 20 20 21 22 24 25 26 25 24 23 23 21 21 20 20
21 19 16 14 13 13 12 12 11 11 10 10 10 11 10 9 8 7 8 11 12 12 14 17 18 20 22 24 26 27 28 28 30 33 35 35 35 35 34 33 33 33 32 32 33 31 31 34 36 36 34 32 30 31 31 32 31 29 28 31 30 27 26 26 25 25 24 21 18 17 15 13 15 18 19 20 22 22 22 24 25 23 23 23 23 21 21 21
20 18 15 14 13 12 11 11 10 10 9 9 11 11 10 8 7 6 7 8 10 12 14 15 17 19 21 23 24 26 27 28 30 32 33 35 36 35 35 34 34 33 33 33 33 31 31 35 37 37 35 33 30 31 32 34 34 32 31 31 31 28 28 28 27 27 24 21 20 20 19 18 17 16 16 17 19 19 18 20 23 25 24 24 24 23 22 22
20 17 15 13 12 11 11 10 9 9 9 10 11 11 9 7 4 4 6 7 9 12 14 15 17 18 20 22 23 25 27 29 30 32 33 34 35 36 36 36 36 35 35 35 33 32 33 37 38 37 35 33 32 32 34 35 36 35 33 33 32 30 30 30 29 30 26 22 22 22 21 21 19 16 14 14 16 17 18 18 20 26 27 25 26 25 24 23
19 16 14 13 11 10 10 9 9 9 9 10 10 9 7 4 1 1 4 6 7 10 13 15 16 17 19 21 21 23 26 28 30 32 33 34 35 37 37 37 38 38 37 37 35 34 36 38 38 37 36 35 33 32 34 37 37 36 35 34 33 32 32 31 30 30 27 24 24 23 21 20 20 19 17 15 15 15 18 17 17 23 27 26 26 26 25 24
18 15 13 11 10 10 9 8 8 8 9 10 10 8 5 3 2 2 2 4 4 7 10 13 15 16 18 20 21 23 25 27 29 31 32 34 35 36 37 38 39 39 38 37 36 36 37 38 37 36 36 36 35 34 36 38 37 37 37 36 35 34 34 32 30 29 27 25 25 24 22 20 20 20 19 18 16 14 14 16 17 21 26 28 28 28 27 26
17 15 12 10 9 9 8 8 8 8 8 9 8 6 5 4 3 2 2 1 2 4 6 8 11 14 15 17 21 23 25 26 28 30 32 33 34 34 36 38 39 40 39 37 36 37 37 38 37 37 37 37 37 36 38 38 37 37 37 36 35 35 33 32 31 27 25 25 26 25 23 21 20 19 18 18 18 16 14 14 15 19 25 29 31 31 30 28
16 14 11 10 9 7 7 8 8 8 8 7 6 5 4 4 3 2 2 2 2 2 3 5 7 10 13 16 18 20 23 25 27 29 31 32 34 35 35 37 39 40 39 38 37 37 38 38 37 37 37 36 36 36 37 36 36 36 35 34 35 33 31 31 29 25 22 23 25 25 24 21 19 18 18 18 18 17 16 14 14 16 21 28 32 33 31 30
15 12 10 9 8 7 6 7 7 7 6 5 5 4 4 4 3 3 3 2 2 1 1 3 5 7 11 14 16 18 20 22 25 28 30 31 32 34 35 36 37 39 39 39 39 38 38 38 37 35 35 35 35 35 35 35 36 35 35 35 35 33 30 29 28 25 24 24 25 24 22 20 19 19 19 19 17 16 15 15 15 16 17 23 32 36 34 31
13 11 9 8 8 7 6 6 6 4 4 5 4 3 4 4 4 4 3 3 2 2 2 1 3 6 9 13 15 16 19 21 23 24 27 29 31 33 35 36 36 37 38 39 39 40 39 38 37 35 34 34 34 35 35 35 36 36 37 37 35 32 30 30 29 28 26 25 25 24 22 20 21 21 20 19 17 15 14 14 15 16 16 20 31 38 37 34
12 10 8 7 7 6 6 5 4 3 4 4 3 2 3 4 4 3 3 3 3 3 3 1 1 4 8 12 15 16 18 19 21 22 23 26 29 32 34 36 36 37 38 38 40 41 40 39 37 35 34 34 35 36 36 36 36 37 38 36 33 33 32 31 30 29 28 26 25 24 23 23 23 22 20 19 18 16 14 13 13 13 14 17 26 37 39 36
12 9 8 7 6 5 5 4 2 2 3 4 3 1 2 3 4 3 1 2 3 3 4 3 1 2 6 11 15 17 17 18 19 20 21 23 26 30 33 35 37 37 37 38 40 41 41 39 37 35 34 34 36 37 38 38 37 37 37 34 33 34 35 33 31 30 30 29 25 22 22 23 22 21 20 19 19 17 15 14 12 11 12 14 22 34 38 34
11 8 7 6 5 5 4 2 1 2 3 4 3 1 1 1 2 2 1 2 3 3 4 4 3 1 5 10 15 18 18 17 17 18 19 20 23 27 31 34 35 36 37 38 40 41 41 39 37 36 34 35 37 38 39 39 39 39 38 36 35 36 35 33 32 30 30 29 24 20 21 21 20 19 19 19 19 18 16 15 14 11 10 12 18 29 35 33
11 8 7 5 4 5 4 1 0 1 1 2 2 1 1 1 1 1 3 3 4 5 4 4 4 3 5 10 14 18 19 18 17 17 17 18 20 23 27 31 33 35 36 38 40 41 40 39 38 37 36 36 38 39 38 37 38 39 38 39 39 38 36 34 32 31 30 29 25 22 21 21 20 19 20 20 19 17 16 16 15 12 10 9 12 22 31 33
11 8 6 5 4 4 4 2 1 1 0 0 0 1 1 2 2 3 4 4 5 6 5 5 5 5 6 10 14 18 19 18 18 18 17 18 19 20 22 26 29 32 34 36 39 40 39 39 38 37 37 38 38 38 37 36 37 37 38 39 40 39 37 35 34 32 32 30 27 24 22 21 21 20 21 21 19 17 16 16 15 13 12 10 9 15 23 28
11 8 6 6 4 4 3 3 2 1 1 1 2 2 3 3 3 3 4 4 4 6 7 6 6 6 8 12 16 19 19 18 18 18 19 19 18 19 20 21 24 28 32 35 37 39 38 38 39 38 38 38 38 37 37 36 36 37 39 40 41 40 38 36 34 32 31 30 28 25 22 21 21 21 22 22 19 17 16 15 15 14 13 12 12 13 16 19
10 8 7 6 6 5 4 3 3 2 2 2 3 3 4 4 3 3 4 5 5 6 8 8 8 8 10 15 18 19 19 19 18 19 20 20 19 19 19 18 19 24 30 34 36 37 37 38 39 39 38 38 37 37 37 37 37 39 41 42 43 42 39 36 34 31 30 30 28 25 22 20 20 21 21 21 19 17 16 16 16 15 15 14 14 14 16 17
10 8 7 7 7 7 5 3 3 3 3 3 4 4 4 4 4 5 6 6 5 6 8 10 11 10 10 15 19 20 20 19 18 19 20 19 18 19 18 17 18 22 28 33 34 36 35 36 38 39 38 38 37 37 38 39 39 41 42 43 43 43 41 38 35 34 33 32 30 28 24 21 19 20 21 21 20 19 18 17 17 17 16 16 15 15 16 18
11 9 8 7 7 7 5 4 3 3 3 4 4 3 3 4 4 5 7 7 6 6 8 11 13 12 11 14 20 22 21 20 18 18 18 18 17 18 17 17 17 20 26 31 33 34 34 34 36 38 38 39 39 40 41 41 41 41 42 43 44 43 43 40 37 37 37 35 34 32 29 23 20 19 19 19 20 20 19 19 19 18 18 17 16 16 17 17
11 9 8 7 7 7 6 5 4 4 3 4 3 2 3 4 4 4 6 7 5 6 8 11 13 15 14 14 18 22 23 22 20 18 17 17 17 17 17 17 18 20 24 29 32 33 32 32 35 37 37 37 38 39 39 40 41 41 41 43 43 44 43 42 40 38 37 36 36 36 33 28 23 21 18 18 19 19 19 18 19 19 18 17 16 16 16 17
11 9 8 7 6 6 6 6 5 5 5 4 4 3 3 4 4 4 5 5 4 4 6 9 13 15 16 16 17 20 23 23 22 21 19 18 18 18 18 18 19 20 22 26 29 32 32 31 33 36 36 35 36 36 37 38 39 40 39 40 41 42 42 42 41 38 35 35 36 36 35 33 30 27 23 19 18 19 18 18 17 17 16 15 15 16 17 17
10 9 8 6 5 6 6 6 5 6 6 5 4 4 4 4 4 3 4 5 4 5 6 7 11 14 16 17 18 19 22 23 24 24 22 21 20 19 19 18 20 22 23 24 27 31 32 31 32 35 35 35 35 36 36 36 37 38 38 38 37 38 38 39 39 36 34 34 34 34 34 34 32 31 29 25 22 21 20 19 18 17 16 14 14 15 16 17
10 9 8 6 5 5 7 6 5 5 5 6 6 6 5 4 3 2 3 5 5 7 8 8 9 11 14 16 18 21 22 23 25 25 25 24 22 20 19 19 21 23 25 25 26 30 32 30 31 34 34 33 34 36 36 36 35 35 37 37 36 36 35 35 36 36 36 35 33 32 33 32 31 31 31 30 28 26 24 23 21 20 19 17 16 15 15 16
10 9 8 7 5 6 7 6 4 4 5 7 8 8 6 5 3 1 2 4 5 7 9 11 11 11 12 13 15 20 24 26 26 26 26 25 24 22 21 20 22 24 27 28 27 29 32 31 30 33 33 32 32 34 36 36 34 33 34 35 36 36 36 35 35 36 37 36 35 35 33 32 31 31 30 30 29 29 29 28 27 26 24 22 21 20 19 18
9 9 8 7 6 6 7 6 4 5 7 9 10 9 8 7 4 1 1 3 5 5 8 11 14 13 13 12 10 13 21 26 28 28 27 25 25 24 22 21 22 24 28 31 29 28 32 33 32 33 34 32 31 32 34 36 35 34 32 33 35 36 37 37 36 35 35 36 37 37 35 33 32 31 30 29 28 29 30 32 31 31 30 28 26 25 23 22
9 9 10 9 7 7 7 7 6 6 8 9 10 10 9 8 6 3 1 2 4 4 4 8 12 13 13 12 8 6 11 19 24 27 27 25 24 24 22 21 22 24 27 32 33 31 32 35 35 33 33 33 32 32 32 33 34 34 34 34 33 34 35 36 36 35 35 35 36 37 37 35 34 33 32 30 29 29 30 33 34 34 34 32 30 29 27 26
Wind_Direction
312 307 301 297 295 292 290 289 288 286 282 278 275 271 267 261 256 252 249 247 246 244 241 240 241 241 240 239 238 237 236 235 234 234 234 232 229 223 220 216 209 208 204 200 201 204 210 215 217 221 222 219 217 224 228 234 242 252 289 324 334 326 331 332 332 133 147 144 143 145 139 140 138 129 128 131 138 148 144 145 143 144 162 176 167 145 130 130
314 308 303 298 293 290 287 286 284 283 281 277 274 272 269 266 261 255 250 247 246 245 242 240 238 238 238 238 237 236 235 233 232 234 234 230 227 223 219 217 212 210 207 203 203 204 208 213 216 219 221 222 221 224 226 230 238 243 277 332 339 338 351 359 99 126 128 133 139 141 140 144 143 136 134 138 144 148 147 145 141 144 155 174 172 147 132 133
316 310 305 300 294 290 286 284 282 280 278 276 274 272 270 268 265 260 254 248 245 244 243 241 238 237 236 236 236 235 233 231 232 234 233 228 227 224 220 219 216 212 210 207 206 207 209 214 217 219 223 228 230 229 227 228 231 231 248 331 348 359 26 88 122 128 130 133 139 141 142 146 143 139 139 145 148 149 153 152 146 146 149 161 167 147 132 132
315 311 307 302 297 292 287 283 281 279 277 276 273 271 268 267 265 262 258 252 247 244 242 241 239 237 235 234 234 234 233 230 232 232 230 229 227 224 221 221 218 213 211 210 209 210 212 217 219 220 225 232 237 234 230 229 227 219 217 284 360 18 59 116 128 131 135 138 144 144 143 146 146 144 145 151 153 150 156 160 152 147 145 150 162 148 135 133
313 310 306 302 298 294 289 284 280 278 276 275 273 270 267 265 263 261 260 255 250 245 242 241 239 237 235 233 232 232 232 231 232 230 228 229 226 222 222 222 220 214 211 210 210 211 213 217 219 220 225 234 238 235 231 232 228 217 205 204 359 24 69 133 143 138 140 147 151 146 144 149 148 142 140 149 155 151 153 161 158 152 147 149 159 151 140 137
312 308 304 300 297 294 290 286 282 278 275 274 273 271 267 264 261 259 258 256 252 246 242 240 239 237 235 233 232 230 230 231 232 229 228 228 225 223 222 223 221 215 212 211 210 211 213 216 218 221 225 231 233 232 231 233 232 220 207 202 202 231 77 155 169 152 147 154 154 148 144 144 141 134 134 141 149 150 148 156 163 158 150 151 157 153 145 142
312 308 303 299 295 292 289 286 283 280 276 272 271 270 268 265 261 258 256 255 252 248 243 240 238 236 235 233 231 230 229 229 230 228 228 227 224 224 223 222 221 216 213 210 208 209 212 214 216 218 223 227 229 229 229 231 233 224 212 208 210 214 133 175 184 163 153 156 157 155 145 139 141 137 138 139 142 147 144 150 165 165 155 155 156 152 148 145
312 308 304 299 296 292 289 286 283 281 277 273 270 268 267 265 262 258 255 253 251 249 245 241 237 235 234 233 231 230 228 227 227 227 227 224 222 223 222 220 220 217 214 211 208 208 209 210 212 216 220 224 225 227 226 228 231 226 216 212 214 218 186 164 182 170 163 160 164 165 148 144 151 147 142 140 141 148 146 148 162 166 160 160 156 151 149 147
310 307 304 300 296 293 290 287 284 281 278 275 271 267 266 264 262 259 255 252 250 249 246 243 239 234 233 232 231 230 227 226 226 225 225 222 220 221 220 219 219 217 213 212 210 208 208 209 210 214 219 222 223 225 225 226 229 226 220 217 218 220 207 183 186 184 180 174 177 176 159 154 161 157 147 143 143 150 153 150 156 162 163 166 160 155 153 151
310 307 304 301 297 294 292 289 286 283 279 276 273 268 265 263 261 259 256 252 249 247 246 243 240 235 231 231 231 230 226 225 225 224 223 221 219 218 217 219 219 218 213 211 210 208 208 208 210 215 219 221 223 224 224 225 226 225 221 219 221 222 217 212 205 198 196 196 193 185 175 168 168 167 157 150 149 153 158 154 155 159 164 174 167 160 158 155
310 307 305 302 299 296 292 289 286 284 281 278 274 270 265 262 260 258 255 252 248 246 244 242 239 236 232 229 230 229 226 224 223 223 221 219 218 217 215 217 219 219 214 211 210 209 208 208 211 216 219 221 224 225 224 224 224 224 223 222 223 223 222 221 223 216 210 211 203 191 188 181 175 177 169 161 158 157 161 158 157 158 164 179 174 165 163 160
311 308 306 303 299 296 292 288 285 282 281 278 275 271 267 263 259 257 254 250 247 244 242 240 237 235 232 229 229 229 226 224 222 221 220 217 217 216 215 217 220 219 215 212 211 210 209 210 212 216 218 221 225 225 225 225 224 224 224 224 225 225 224 220 225 231 225 222 212 199 193 188 184 184 178 171 163 158 164 163 161 159 163 182 182 171 167 167
313 310 308 304 299 295 291 286 282 279 278 277 274 271 267 263 258 255 252 248 245 241 239 238 235 233 231 229 227 227 226 224 222 220 218 216 215 214 213 216 220 221 219 216 215 213 210 210 212 215 218 220 224 225 225 227 226 225 224 225 225 227 227 224 226 231 229 226 220 208 196 192 191 188 181 175 166 156 162 168 164 158 162 184 191 179 171 171
314 312 309 305 300 295 289 284 280 277 275 274 272 268 264 262 257 253 249 246 242 239 236 234 232 230 229 228 226 225 224 223 221 219 217 215 213 212 211 213 216 219 219 217 217 217 214 212 211 214 217 219 223 224 224 225 226 225 224 224 224 226 228 228 227 229 230 227 222 213 200 195 193 188 182 178 171 160 161 170 168 156 159 183 196 188 175 172
316 313 310 307 302 296 289 282 278 275 273 272 270 265 261 259 256 251 247 244 240 237 234 232 230 228 227 226 224 222 222 223 221 219 216 214 212 210 210 211 212 214 216 215 215 217 217 216 215 215 217 218 221 223 222 222 223 223 222 221 221 223 225 226 226 228 231 228 222 214 204 198 193 187 183 181 176 167 163 172 172 157 157 179 195 194 180 173
318 315 312 308 303 297 290 282 278 274 272 272 269 263 259 257 255 251 247 244 240 236 233 230 228 226 225 224 222 221 221 221 221 219 216 214 212 210 210 212 211 211 213 212 212 214 215 217 218 218 217 218 220 221 219 218 219 218 218 218 217 219 220 222 223 223 225 226 224 219 209 199 193 188 185 184 179 174 169 174 175 161 157 175 191 195 184 175
319 317 314 310 304 299 292 285 280 277 275 273 269 263 259 257 255 252 248 245 241 237 233 229 227 225 224 222 221 220 220 221 222 221 218 215 213 211 211 212 211 212 212 210 210 211 212 214 216 217 218 219 219 219 217 214 215 215 217 217 216 216 217 219 220 220 222 223 225 224 215 201 193 188 184 185 182 178 176 177 179 167 159 168 184 192 187 178
321 319 316 312 308 303 297 290 285 281 279 276 272 267 263 260 257 254 249 245 241 238 233 230 227 225 224 222 221 220 220 220 221 222 220 218 215 213 212 211 211 211 212 211 209 209 211 213 213 213 215 218 217 216 214 210 208 209 210 212 212 211 214 218 218 219 221 224 227 226 217 203 195 190 183 184 185 183 183 182 183 174 161 164 179 190 189 183
323 322 320 317 314 309 304 296 290 286 283 281 278 274 270 266 262 257 252 245 240 236 233 230 227 226 224 222 221 220 219 218 219 220 219 218 217 214 213 212 211 210 210 211 210 210 211 212 212 211 212 215 215 212 210 208 206 207 207 205 202 202 208 214 212 214 217 222 228 220 210 203 198 193 184 184 189 189 188 187 187 181 166 165 177 187 190 188
326 325 323 321 318 314 309 303 298 293 290 287 284 280 276 271 266 261 255 249 243 237 233 230 227 225 224 222 221 219 217 217 217 217 217 217 217 215 213 212 212 210 209 208 209 211 211 210 211 210 209 211 213 210 208 208 207 208 210 207 200 196 202 209 207 208 212 219 224 210 202 201 197 193 185 186 193 193 191 190 191 187 174 170 178 185 191 191
329 326 323 320 318 314 310 307 304 300 295 292 288 283 278 273 267 262 257 252 247 241 233 229 226 224 222 221 220 218 216 215 215 215 215 215 216 216 214 212 212 211 209 207 207 209 210 209 209 209 206 207 210 208 205 207 208 206 209 208 200 195 198 204 204 204 210 217 221 207 201 199 195 193 189 189 194 193 192 192 192 192 183 177 180 184 189 191
331 327 323 319 317 314 312 311 309 305 301 297 292 288 282 274 266 261 255 249 244 240 233 227 224 222 221 221 220 217 215 214 213 213 213 214 215 215 215 213 212 210 209 209 207 208 208 206 207 209 206 205 207 205 203 207 208 203 202 201 196 195 199 204 206 206 212 216 218 211 205 198 191 190 190 190 192 194 195 192 190 194 191 185 183 184 188 189
334 330 326 323 320 318 317 315 312 310 306 302 297 292 285 277 269 260 253 246 241 236 230 224 221 219 218 219 218 216 214 212 211 211 211 212 214 214 215 214 213 210 208 209 209 209 207 205 208 209 206 205 203 202 203 206 208 202 197 196 197 200 201 204 206 207 212 214 215 214 204 195 187 184 187 187 189 196 201 197 192 192 195 193 186 184 186 189
338 335 331 328 326 324 321 318 316 314 308 302 297 292 287 281 273 262 253 246 239 232 225 221 218 215 215 217 216 215 213 211 209 208 208 210 212 213 214 214 213 210 208 207 206 208 207 206 209 209 206 204 200 199 201 205 207 200 194 195 199 206 206 202 201 204 209 210 211 211 199 192 186 182 186 186 188 197 205 205 197 191 195 199 191 185 187 190
339 337 334 331 329 326 323 322 320 316 309 301 296 293 289 283 276 265 254 244 235 227 221 217 215 213 212 213 214 214 212 210 207 204 204 207 209 211 213 214 212 210 208 206 204 204 206 207 209 209 207 203 197 197 199 203 204 196 194 199 201 206 210 206 204 209 211 207 205 207 197 192 190 188 190 190 190 198 205 208 202 193 193 198 193 188 192 193
337 335 332 330 328 326 324 323 320 314 306 300 297 295 292 289 279 265 249 238 229 223 217 214 212 211 210 211 212 211 210 209 206 203 202 203 205 208 211 213 212 210 207 205 203 203 205 208 209 208 207 202 197 196 198 201 199 191 195 203 202 203 207 207 209 212 214 212 206 205 202 191 189 192 198 199 200 206 210 210 206 197 192 193 191 190 195 197
336 332 330 329 328 326 324 322 317 312 304 300 300 300 299 294 283 265 243 228 222 218 213 210 209 208 208 210 210 209 208 207 205 204 202 201 202 205 208 210 211 210 208 205 203 203 205 208 210 209 207 202 198 197 197 199 197 192 199 206 202 201 204 207 211 214 216 216 212 211 211 198 188 193 202 205 209 214 214 212 209 199 190 192 192 189 194 198
336 332 330 330 329 326 324 322 319 311 305 303 304 306 305 299 288 265 236 220 215 211 207 204 204 204 206 208 209 207 206 204 203 204 203 201 199 201 203 205 208 209 208 207 204 202 204 209 211 210 208 203 199 198 197 198 197 194 201 208 205 201 204 207 210 216 220 219 219 219 214 210 202 197 201 208 212 216 215 211 208 201 192 193 194 192 194 197
336 333 331 331 329 327 327 326 320 313 311 310 311 315 316 309 293 257 224 210 204 202 198 195 197 200 202 205 206 205 204 202 201 203 203 202 200 199 200 201 204 206 205 206 204 200 203 209 210 210 208 202 199 198 198 199 198 195 201 207 205 204 207 209 210 214 220 223 225 225 218 217 216 202 198 208 213 216 216 214 210 203 197 195 195 195 197 197
336 333 333 332 329 329 330 327 321 318 316 315 321 328 328 316 289 240 207 193 191 194 191 188 190 194 197 201 203 202 201 201 201 201 202 202 200 200 199 199 202 203 202 204 203 199 203 208 209 209 207 202 199 198 199 202 201 198 201 205 205 206 209 211 213 213 216 223 228 229 225 223 224 216 207 207 209 211 213 215 213 205 200 197 196 197 199 198
336 334 334 331 330 332 332 329 325 323 319 322 331 337 335 328 299 196 176 178 182 187 188 186 185 189 193 196 197 199 200 200 201 201 200 201 201 201 199 198 201 202 201 202 200 199 204 208 208 208 206 203 200 199 201 205 203 199 202 205 205 208 211 213 216 214 213 221 228 230 229 228 227 226 223 217 211 213 214 215 215 206 201 199 198 200 201 201
337 335 334 331 332 335 334 330 326 324 325 333 343 345 349 5 27 64 132 168 177 182 185 185 184 186 190 191 192 193 196 199 201 201 200 200 201 202 201 199 200 202 201 200 199 200 206 209 208 207 206 205 202 200 203 206 204 202 205 207 207 210 213 214 218 216 213 219 227 230 230 229 228 227 226 226 222 219 214 213 215 210 204 199 199 202 203 203
337 336 334 331 333 336 335 332 330 332 338 345 353 358 5 13 21 55 92 127 148 161 174 184 192 194 193 194 193 191 191 195 199 200 201 201 200 201 202 201 201 202 201 198 198 201 206 210 209 207 206 206 203 203 206 208 206 206 207 207 209 212 214 216 219 219 216 219 226 229 228 227 229 228 226 227 227 223 217 211 212 214 211 206 202 203 205 204
338 336 334 330 332 336 336 335 338 344 350 357 7 19 29 26 35 69 72 73 110 137 156 175 193 200 200 202 201 193 189 192 196 198 200 201 200 199 201 202 203 203 201 197 198 201 206 210 210 208 207 206 205 206 209 209 207 208 208 207 210 213 215 218 220 220 220 223 227 229 229 227 229 229 226 225 226 225 223 220 218 218 217 215 210 206 205 205
337 335 332 331 332 334 337 341 347 354 6 22 30 39 52 53 54 65 62 66 83 76 123 164 187 201 205 209 207 198 192 192 195 198 198 199 201 200 200 202 204 204 203 199 199 201 206 210 210 209 208 207 207 209 210 209 207 207 207 208 211 212 213 217 220 220 218 220 224 226 226 223 222 224 223 222 221 222 224 226 230 231 231 228 220 211 205 204
336 333 329 330 331 330 336 346 354 12 40 52 48 45 63 71 63 56 52 48 42 34 49 133 194 204 210 213 210 200 194 196 197 199 199 198 200 201 201 202 203 204 204 201 200 202 205 210 210 208 208 207 207 210 211 212 209 206 207 209 210 211 212 214 218 218 215 216 221 221 220 218 217 220 220 218 217 217 222 228 233 238 241 237 223 212 204 201
334 330 325 327 328 325 335 349 4 38 62 67 70 79 98 99 86 68 42 23 13 9 9 360 232 211 213 215 212 201 195 199 200 200 201 200 199 201 202 202 201 202 204 202 202 203 205 208 210 208 207 206 207 208 209 210 210 209 209 209 209 211 212 212 215 217 215 216 220 217 215 216 216 217 218 218 216 214 218 227 233 238 239 234 221 212 205 200
329 324 320 321 322 318 329 354 22 56 76 87 103 130 134 119 106 96 43 348 338 338 342 342 331 226 212 211 210 203 196 197 200 200 201 202 202 202 204 204 201 200 201 201 203 205 205 206 208 207 206 207 207 208 208 208 208 208 208 207 209 214 215 212 213 217 215 217 221 217 214 214 213 213 216 218 217 214 214 222 230 236 233 226 221 214 208 202
324 319 315 315 316 310 317 354 54 58 87 113 133 188 228 165 131 131 195 280 296 301 313 321 318 257 208 205 204 203 199 197 199 200 201 202 204 206 206 206 203 200 199 200 202 205 206 206 207 206 206 207 208 209 209 208 207 206 204 205 209 214 216 215 215 219 219 219 221 219 215 214 213 214 218 220 221 217 215 220 227 234 230 223 223 216 207 202
319 313 308 307 308 303 303 303 125 36 93 132 151 189 239 258 274 234 232 240 255 266 271 285 292 257 212 204 200 201 201 198 196 200 203 203 205 210 212 211 207 202 199 199 202 205 205 205 206 205 205 207 210 210 210 210 210 207 205 205 208 211 213 213 215 217 220 221 221 219 217 217 216 218 221 223 224 222 219 221 227 234 236 229 224 214 206 203
314 305 297 294 292 288 289 283 249 238 207 236 254 211 207 249 279 280 272 252 238 243 247 254 265 247 215 203 196 195 197 196 194 197 204 207 208 213 216 216 212 206 201 200 203 205 203 203 205 205 205 207 210 210 209 210 210 210 209 207 210 214 214 215 216 217 218 221 221 221 221 222 222 221 223 225 226 227 225 224 227 232 238 237 227 214 208 207
308 296 284 281 273 263 270 271 253 242 266 293 290 259 233 234 250 276 291 284 252 238 238 241 247 235 211 199 194 191 192 196 196 197 203 210 213 216 218 218 215 209 203 202 204 205 203 202 204 205 205 207 209 209 208 208 208 209 210 209 212 217 219 221 221 220 220 221 222 223 223 224 225 223 225 226 226 229 230 229 228 229 232 236 233 226 218 215
300 285 276 274 265 252 252 255 248 244 266 282 284 279 263 251 248 261 275 280 266 242 232 233 236 229 211 200 195 192 193 199 201 201 206 211 214 219 221 220 215 209 205 204 205 206 204 201 202 205 206 207 208 208 206 207 208 209 210 211 214 219 222 224 224 221 221 223 223 223 220 219 222 222 225 228 228 230 232 233 232 230 228 230 231 230 228 225
294 278 270 274 270 257 240 231 237 245 267 284 286 284 280 277 276 269 263 260 253 239 231 229 228 227 218 205 199 197 198 203 205 206 209 212 215 219 221 219 213 207 205 205 206 207 205 202 202 205 206 205 205 206 205 205 208 209 211 213 215 219 222 224 223 221 220 219 220 219 213 209 215 219 222 226 227 228 230 231 235 235 231 229 228 229 230 228
291 274 267 272 273 260 238 222 220 234 266 284 286 281 285 294 290 267 256 252 245 234 228 226 223 223 222 210 204 203 204 206 209 211 212 211 214 218 217 215 210 205 203 205 207 207 205 203 203 204 207 206 205 206 206 206 207 209 212 214 216 219 222 224 224 224 223 220 219 218 213 208 212 216 218 222 224 228 231 233 236 238 237 234 231 231 232 230
287 270 262 264 267 259 243 228 215 221 243 258 264 264 273 285 277 245 244 252 250 235 225 221 219 219 220 215 209 209 210 210 212 216 215 212 211 214 213 210 206 203 203 204 206 206 204 203 203 204 207 207 207 208 208 208 208 210 212 215 217 220 223 225 226 227 226 224 223 222 218 215 219 221 218 217 221 227 230 231 234 237 238 238 236 236 236 234
286 267 258 258 261 252 240 232 225 227 231 234 240 234 235 256 256 236 238 250 256 246 228 219 215 215 217 217 215 214 216 216 217 220 221 219 216 214 212 209 204 200 202 205 206 205 203 202 203 203 206 206 206 207 209 210 210 211 213 215 218 221 223 226 229 230 230 229 227 227 225 223 224 225 222 217 215 219 222 223 223 227 232 235 236 237 238 239
284 265 254 253 254 245 240 238 237 235 229 224 226 219 217 241 255 242 229 236 247 246 231 217 213 212 215 218 219 219 221 222 223 226 227 226 223 218 217 214 206 201 202 205 206 204 201 202 202 202 204 206 205 205 208 210 211 212 214 216 219 222 224 227 229 230 232 233 231 230 230 229 227 226 224 223 218 216 219 220 218 219 223 228 231 233 240 244
280 260 250 250 249 243 243 244 239 231 224 217 214 210 206 222 247 243 215 221 235 238 228 218 212 210 213 217 219 221 222 224 227 229 230 230 228 223 221 220 213 206 204 206 207 205 201 201 202 202 203 205 206 205 206 208 211 214 215 217 220 223 226 228 230 231 233 234 235 234 234 233 232 228 225 226 226 223 224 226 226 226 227 229 232 236 243 250
273 255 244 244 247 240 240 244 235 210 207 210 211 209 205 207 221 230 203 210 225 236 232 224 220 219 218 220 224 224 222 222 225 228 230 231 231 227 225 225 221 213 209 207 207 207 204 202 202 201 202 204 206 206 207 208 211 214 217 219 221 223 226 229 232 233 234 235 237 238 238 238 239 235 230 229 230 228 229 232 235 236 236 237 240 245 250 255
265 245 232 232 239 236 234 241 232 204 201 208 213 214 211 210 215 216 192 209 223 243 241 229 226 231 236 241 244 236 226 222 222 226 228 229 229 228 228 230 226 219 213 209 207 208 207 206 204 200 201 204 205 206 209 210 212 215 218 221 223 225 228 231 233 235 237 237 238 240 241 242 244 243 239 235 232 231 230 232 236 238 240 243 246 249 252 254
257 236 224 221 226 228 226 226 222 213 209 213 220 222 218 217 218 215 215 226 226 243 251 229 224 232 242 248 256 254 230 222 221 225 227 227 226 225 229 234 230 222 217 210 207 208 208 208 208 204 201 204 207 206 208 211 214 217 219 221 224 226 229 232 234 236 237 238 240 241 242 243 244 245 244 241 237 235 232 232 234 237 240 244 247 248 250 252